Regional Weather Roundup
Issued by NWS

Home | Current Version | Previous Version | Text Only | Print | Product List | Glossary Off
Versions: 1 2 3 4 5 6 7 8 9 10 11 12 13 14 15 16 17 18 19 20 21 22 23 24 25 26 27 28 29 30 31 32 33 34 35 36 37 38 39 40 41 42 43 44 45 46 47 48 49 50

000
ASUS43 KBIS 021510
RWRND

NORTH DAKOTA REGIONAL WEATHER ROUNDUP
NATIONAL WEATHER SERVICE BISMARCK ND
900 AM CST FRI DEC 02 2016

NOTE: "FAIR" INDICATES FEW OR NO CLOUDS BELOW 12,000 FEET WITH NO
SIGNIFICANT WEATHER AND/OR OBSTRUCTIONS TO VISIBILITY.


NDZ001>003-009>011-017-021600-
NORTHWEST NORTH DAKOTA

CITY           SKY/WX    TMP DP  RH WIND       PRES   REMARKS
WILLISTON      CLOUDY    27  23  85 S6        30.17S
MINOT          CLOUDY    26  21  81 SE3       30.21R
MINOT AFB      CLOUDY    25  21  85 S3        30.20R
$$

NDZ018>021-031>035-040>046-021600-
SOUTHWEST NORTH DAKOTA

CITY           SKY/WX    TMP DP  RH WIND       PRES   REMARKS
BISMARCK       CLOUDY    25  18  74 CALM      30.25R
DICKINSON      CLOUDY    23  20  88 S6        30.15R WCI  16
GARRISON         N/A     26  22  84 SW8       30.20R WCI  18
HETTINGER ARPT CLOUDY    24  21  88 S5        30.17R WCI  18
$$

NDZ004>008-012>016-024-026-027-054-021600-
NORTHEAST NORTH DAKOTA

CITY           SKY/WX    TMP DP  RH WIND       PRES   REMARKS
GRAND FORKS    CLOUDY    30  22  72 CALM      30.24R
GRND FRKS AFB  CLOUDY    29  23  78 NE1       30.24R
DEVILS LAKE    CLOUDY    28  21  75 W5        30.23R
$$

NDZ022-023-025-028>030-036>039-047>053-021600-
SOUTHEAST NORTH DAKOTA

CITY           SKY/WX    TMP DP  RH WIND       PRES   REMARKS
FARGO          CLOUDY    28  20  71 N8        30.25R WCI  20
JAMESTOWN      CLOUDY    26  19  74 NW7       30.23R WCI  18
$$




USA.gov is the U.S. government's official web portal to all federal, state and local government web resources and services.